Regional Weather Roundup
Issued by NWS Wakefield, VA

Home | Current Version | Previous Version | Graphics & Text | Print | Product List | Glossary On
Versions: 1 2 3 4 5 6 7 8 9 10 11 12 13 14 15 16 17 18 19 20 21 22 23 24 25 26 27 28 29 30 31 32 33 34 35 36 37 38 39 40 41 42 43 44 45 46 47 48 49 50
000
ASUS41 KAKQ 281410
RWRAKQ

REGIONAL WEATHER ROUNDUP
NATIONAL WEATHER SERVICE WAKEFIELD VA
900 AM EST FRI NOV 28 2014

Note: "fair" indicates few or no clouds below 12,000 feet with no
significant weather and/or obstructions to visibility. * = Denotes
station may not report precipitation (e.g., rain,snow,etc.),
thunder or fog.

VAZ042-051-052>054-056-281500-
NORTHERN VIRGINIA

CITY           SKY/WX    TMP DP  RH WIND       PRES   REMARKS
WASH NATIONAL  MOSUNNY   38  20  48 NW9G20    30.32R
DULLES         PTSUNNY   34  19  54 W16       30.31R WCI  24
FORT BELVOIR   SUNNY     37  19  50 NW8       30.32R
QUANTICO       SUNNY     37  21  52 NW9       30.34R
FREDERICKSBRG* SUNNY     37  24  60 NW8       30.33R
STAFFORD*      SUNNY     33  23  66 CALM      30.37R
WARRENTON      SUNNY     37  27  68 W10G20    30.32R
CULPEPER*      SUNNY     36  21  55 NW3       30.33R
MANASSAS*      SUNNY     36  23  60 NW6       30.32
LEESBURG*      CLOUDY    34  25  69 W12       30.32R
WINCHESTER     SUNNY     34  18  51 NW18G25   30.28F WCI  23
FRONT ROYAL*   SUNNY     32  18  55 W8G20     30.29S
LURAY*         CLOUDY    34  21  60 W6G21     30.31R
$$

VAZ048-049-060>072-079>083-281500-
CENTRAL AND SOUTH CENTRAL VIRGINIA

CITY           SKY/WX    TMP DP  RH WIND       PRES   REMARKS
RICHMOND       SUNNY     37  24  59 NW8       30.32R
CHESTERFIELD*  SUNNY     37  18  44 NW6       30.33R
PETERSBURG*    SUNNY     36  24  62 NW7       30.33F
HANOVER        SUNNY     34  24  67 NW7       30.34R
TAPPAHANNOCK*  SUNNY     36  20  53 W7        30.32R
QUINTON*       SUNNY     33  25  71 NW7       30.32S
CHARLOTTSVILLE MOSUNNY   34  17  50 VRB3      30.32R
GORDONSVILLE*  PTSUNNY   34  19  53 NW6       30.32R
ORANGE*        SUNNY     36  21  55 W6        30.33R
LOUISA*        MOSUNNY   36  21  55 W6        30.31R
BUMPASS*       SUNNY     33  22  63 W3        30.32S
FARMVILLE*     SUNNY     40  27  60 N5        30.33R
CREWE*         SUNNY     34  21  59 NW9       30.33R
FORT PICKETT*  SUNNY     34  23  65 NW9       30.33R
CHASE CITY*    SUNNY     35  25  66 NW5       30.34R
CLARKSVILLE*   SUNNY     34  23  64 NW3       30.34R
SOUTH HILL*    SUNNY     34  22  62 NW3       30.39R
LAWRENCEVILLE* SUNNY     33  24  70 NW6       30.32S
$$

VAZ088>098-281500-
SOUTHEAST VIRGINIA

CITY           SKY/WX    TMP DP  RH WIND       PRES   REMARKS
NORFOLK        SUNNY     38  21  50 NW13G30   30.31R
VIRGINIA BEACH MOSUNNY   41  25  53 N14G28    30.30R
NORFOLK NAVAL  MOSUNNY   41  22  46 NW18G28   30.33R
WEST POINT*    SUNNY     37  23  57 NW8       30.33S
SALUDA*        FAIR      36  25  64 NW10G17   30.30S
NEWPORT NEWS   SUNNY     39  25  57 NW10      30.32R
LANGLEY AFB    SUNNY     37  24  58 NW16G24   30.32R
FORT EUSTIS    SUNNY     37  24  60 NW12      30.31R
WILLIAMSBURG*  SUNNY     36  30  80 NW7       30.33R
HR EXEC AP*    SUNNY     36  28  75 NW6       30.34S
FRANKLIN*      SUNNY     34  27  75 NW8       30.33S
WAKEFIELD      SUNNY     36  24  62 NW7       30.33R
$$

VAZ020-022-025-037-045-281500-
WEST CENTRAL AND SOUTHWEST VIRGINIA

CITY           SKY/WX    TMP DP  RH WIND       PRES   REMARKS
STAUNTON*      CLOUDY    30  15  53 W5        30.33R
WAYNESBORO*    PTSUNNY   29  14  53 NW8       30.29R
HOT SPRINGS VA CLOUDY    18  12  77 NW10G17   30.13R WCI   6
LYNCHBURG      SUNNY     34  17  50 CALM      30.34R
DANVILLE       SUNNY     35  21  56 VRB5      30.36R
SOUTH BOSTON*  SUNNY     35  22  59 NW7       30.36R
MARTINSVILLE   PTSUNNY   34  17  49 NW10      30.39S
ROANOKE        PTSUNNY   32  17  54 NW6       30.35R
BLACKSBURG     FLURRIES  27  21  80 W5        30.31R
DUBLIN*        CLOUDY    28  17  64 NW10G18   30.31S WCI  18
MARION*        CLOUDY    27  19  72 W16       30.30S WCI  14
HILLSVILLE*    CLOUDY    24  15  70 NW8       30.26R
RICHLANDS*     PTSUNNY   26  19  77 NW3       30.29S
WISE*          CLOUDY    25  18  74 SW6       30.32R
ABINGDON*      MOSUNNY   28  17  63 NW6       30.34R
$$

MDZ021>025-VAZ099-100-281500-
SOUTHERN MARYLAND AND THE DELMARVA PENINSULA

CITY           SKY/WX    TMP DP  RH WIND       PRES   REMARKS
PATUXENT RIVER MOSUNNY   36  21  54 NW16      30.29R
BAY BRIDGE APT   N/A     36  23  60 NW16G23   30.29R
LEONARDTOWN    SUNNY     36  21  55 NW9G17    30.30S
DOVER          SUNNY     36  24  64 W14G20    30.23R
GEORGETOWN     SUNNY     36  24  62 NW8       30.26R
EASTON         SUNNY     37  27  65 NW12G20   30.31R
CAMBRIDGE      SUNNY     37  25  60 NW14      30.27R
SALISBURY      SUNNY     38  24  57 NW17      30.26R
OCEAN CITY     SUNNY     36  25  64 NW12G18   30.26R
WALLOPS ISLAND SUNNY     36  25  64 N14G20    30.28R
ACCOMACK*      MOSUNNY   37  25  60 NW10G22   30.29R
$$

NCZ012>017-030>032-281500-
NORTH CENTRAL AND EASTERN NORTH CAROLINA

CITY           SKY/WX    TMP DP  RH WIND       PRES   REMARKS
ROANOKE RAPIDS SUNNY     36  25  64 N8        30.34S
RALEIGH        MOSUNNY   34  23  64 CALM      30.36R
ELIZABETH CITY SUNNY     40  28  62 NW10      30.32R
AHOSKIE*       SUNNY     35  25  67 NW5       30.34S
EDENTON*         N/A     37  29  74 N9        30.33R
CURRITUCK*     SUNNY     37  24  59 NW10G17   30.31S
KILL DEVIL HLS SUNNY     39  26  59 NW10G18   30.28R
MANTEO         SUNNY     39  28  64 N13G18    30.30R
CAPE HATTERAS  SUNNY     40  29  64 N10G22    30.28R
TARBORO*       SUNNY     36  27  71 NW6       30.36R
GOLDSBORO      SUNNY     36  27  70 NW10      30.34R
WASHINGTON     SUNNY     35  25  68 N6        30.34R
GREENVILLE     SUNNY     36  27  69 N8        30.35R
NEW BERN       SUNNY     39  25  57 N15G22    30.35R
WILMINGTON     SUNNY     38  25  59 N15G23    30.35R
$$

VAZ048-281500-
ELSEWHERE

CITY           SKY/WX    TMP DP  RH WIND       PRES   REMARKS
HARRISBURG PA  MOSUNNY   33  19  56 NW15G21   30.26R WCI  23
BALTIMORE      MOSUNNY   36  22  56 W16       30.28R
ANNAPOLIS      SUNNY     37  22  54 NW14G20   30.28R
ANDREWS AFB    SUNNY     36  20  53 NW13G23   30.29R
PHILADELPHIA   MOSUNNY   36  22  56 NW20      30.25R
WILDWOOD NJ*   SUNNY     37  21  52 NW10G20   30.22S
HENDERSON NC   SUNNY     34  21  58 NW7       30.34R
GREENSBORO     MOSUNNY   34  18  52 NW5       30.35R
ROCKY MOUNT    SUNNY     36  24  62 NW10      30.35R
$$

VAZ100-281500-
MARINE

STATION/POSITION TIME  TEMP    WIND        PRES    WAVE   SWELL
                       AIR SEA DIR/SP/G            HT/PER HT/PER
                 (UTC) (F)     (DEG/KT/KT) (MB)    (FT/S) (FT/S)
CAPE MAY NJ      1400   37 44  320/ 20/ 27 1023.3S
LEWES DE         1400   36 46  300/ 19/ 23 1024.0S
15NM E FENWICK I 1400   39 53              1022.9R   5/ 5
OCEAN-CITY-INLET 1400   36 45  330/ 11/ 13 1024.0R
WACHAPREAGUE VA  1400   40 44  300/  5/ 12 1025.3R
THOMAS POINT MD  1400   35 45  310/ 18/ 22 1026.3R
GOOSES REEF MD   1400   37 47  330/ 17/ 21 1025.8R   2/ 3
COVE POINT MD    1400   35     330/ 12/ 15 1025.4S
SOLOMONS ISLAND  1400      47                N/A
BISHOPS HEAD MD  1400   36 40  320/ 15/ 19 1024.9R
PINEY POINT MD   1400          330/ 21/ 24   N/A
POTOMAC MD       1400   38 47  330/ 17/ 21 1025.4R   3/ 3
CAMBRIDGE MD     1400   37 44  320/ 16/ 20 1025.0S
LEWISETTA VA     1400   38 45  340/ 13/ 21 1025.9F
RAPPAHANNOCK LGT 1400          320/ 21/ 26 1026.1R
STINGRAY PT      1400   37 48  330/ 17/ 21 1026.4S   2/ 2
YORK RVR RNG VA  1400   36     340/ 17/ 21 1025.9S
YORKTOWN VA      1400   36 50  330/ 17/ 21 1026.1S
JAMESTOWN VA     1400   36 49  340/ 12/ 16   N/A     0
DOMINION TERM VA 1400   36     350/ 12/ 16 1026.6R
KIPTOPEKE VA     1400      51  350/ 21/ 28   N/A
CHES BAY BRIDGE  1400   38 49  320/ 24/ 29 1025.7S
CAPE HENRY VA    1400   38     330/ 25/ 30 1024.7S
CHESAPEAKE LGHT  1300   39     330/ 26/ 29 1025.1R
WILLOUBY STN VA  1400   37     340/ 20/ 24 1025.0R
S CRANEY ISL VA  1400          300/ 12/ 17 1026.4S
CAPE HENRY BUOY  1300      55                N/A     5/ 5
1ST LANDING BUOY 1400   40 50  340/ 21/ 27 1025.7R   4/ 3
CAPE CHARLES BUO 1400      53                N/A     4/ 4   2/ 9
64NM E OF VA BCH 1400   44 64  340/ 23/ 29 1023.2R   7/ 6   2/14
DUCK PIER NC     1400   39 52  330/ 23/ 25 1024.2F
44100 DUCK FRF   1400      56                N/A     7/ 6   2/13
44056 DUCK FRF   1400      54                N/A     6/ 6   2/13
OREGON INLET NC  1400   40 52  320/ 17/ 23 1025.1S
HATTERAS NC      1400   41 53  340/ 23/ 27 1025.6S
DIAMOND SHLS NC  1400   45     330/ 21/ 29 1024.2R   6/ 6   2/13
CAPE LOOKOUT NC  1300   37     350/ 17/ 21 1025.9R
$$



USA.gov is the U.S. government's official web portal to all federal, state and local government web resources and services.